Погода в Богословке

Россия / Белгородская область     51°07′10″N   37°30′34″E
темп.,
°C
ветер,
м/с
пор.,
м/с
влажн.,
%
обл.,
%
осадки,
мм/ч
давл.,
гПа
погр.,
м
28 сентября, вт
вт2800:00+8ссз3784100 0.1 1020298
03:00+8с4887100 0.2 1021313
06:00+7с379666 0.0 1022201
09:00+9св478292 0.1 1022620
12:00+9всв477699 0.3 1024875
15:00+10св6664100 0.4 10251017
18:00+8св587498 0.0 1027627
21:00+7св5784100 0.0 1029751
29 сентября, ср
ср2900:00+7св4779100 0.0 1030727
03:00+6св4777100 0.0 1031536
06:00+6св487651 0.0 1032514
09:00+7св58620 0.0 1033626
12:00+11всв564311 0.0 10321276
15:00+12св56370 0.0 10311453
18:00+8св36490 0.0 1032117
21:00+6св36604 0.0 1033106
30 сентября, чт
чт3000:00+4св226527 0.0 103427
03:00+3св226850 0.0 103420
06:00+3ссв227085 0.0 103424
09:00+7св34555 0.0 1035340
12:00+11всв34415 0.0 10341199
15:00+13св33385 0.0 10331490
18:00+9св33515 0.0 103424
21:00+7всв22625 0.0 103419
1 октября, пт
пт100:00+6всв12671 0.0 103510
03:00+5св11735 0.0 103610
06:00+4св227615 0.0 103611
09:00+8всв235894 0.0 1036237
12:00+13в22445 0.0 10361147
15:00+14в22405 0.0 10341412
18:00+10всв22525 0.0 103411
21:00+8в22614 0.0 103514
2 октября, сб
сб200:00+7вюв22661 0.0 103511
03:00+6вюв22715 0.0 103510
06:00+5вюв22755 0.0 103510
09:00+10вюв23575 0.0 1035263
12:00+14юв34424 0.0 10341095
15:00+16юв34395 0.0 10331500
18:00+11вюв335322 0.0 103330
21:00+9вюв34628 0.0 103358